#timestamp,LO_Frequency,Hit,StdDev 
1457611215.2,286047001.5,N
1457611235.0,286047004.3,N
1457611235.9,286047004.3,N
1457611255.7,286047001.6,N
1457611275.6,286047000.7,N
1457611295.4,286047000.3,N
1457611315.2,286046998.6,N
1457611335.1,286047002.5,N
1457611336.0,286047002.5,N
1457611355.8,286047000.7,N
1457611375.6,286047000.3,N
1457611395.5,286047002.5,N
1457611415.3,286046999.5,N
1457611435.1,286046996.5,N
1457611455.9,286046997.4,N
1457611475.7,286046998.1,N
1457611495.5,286046995.7,N
1457611515.4,286046996.4,N
1457611535.2,286046993.3,N
1457611555.0,286046994.4,N
1457611555.9,286046994.4,N
1457611575.7,286046993.7,N
1457611595.6,286046992.5,N
1457611615.4,286046989.6,N
1457611635.2,286046990.0,N
1457611655.1,286046990.7,N
1457611656.0,286046990.7,N
1457611675.8,286046994.5,N
1457611695.6,286046996.2,N
1457611715.5,286046994.3,N
1457611735.3,286046991.7,N
1457611755.1,286046995.8,N
1457611775.9,286046997.2,N
1457611795.7,286046998.4,N
1457611815.5,286046998.6,N
1457611835.4,286046997.4,N
1457611855.2,286046998.8,N
1457611875.0,286046996.7,N
1457611875.9,286046996.7,N
1457611895.8,286046998.0,N
1457611915.6,286046995.3,N
1457611935.4,286046997.5,N
1457611955.2,286046995.7,N
1457611975.1,286046997.1,N
1457611976.0,286046997.1,N
1457611995.8,286046995.6,N
1457612015.6,286046997.1,N
1457612035.5,286047000.8,N
1457612055.3,286047003.6,N
1457612075.1,286046998.1,N
1457612095.9,286046998.3,N
1457612115.7,286046999.6,N
1457612135.5,286046995.0,N
1457612155.4,286046996.5,N
1457612175.2,286046994.9,N
1457612195.0,286046994.9,N
1457612195.9,286046994.9,N
1457612215.8,286046998.3,N
1457612235.6,286046999.7,N
1457612255.4,286047000.5,N
1457612275.3,286046997.2,N
1457612295.1,286046995.6,N
1457612296.0,286046995.6,N
1457612315.8,286046993.2,Y
1457612335.7,286046991.7,P
1457612355.5,286046993.0,N
1457612375.3,286046993.0,N
1457612395.2,286046992.4,Y
1457612415.9,286046999.8,P
1457612435.7,286047003.8,N
1457612455.6,286047002.5,N
1457612475.4,286047000.1,N
1457612495.2,286047000.5,N
1457612515.1,286047004.1,N
1457612516.0,286047004.1,N
1457612535.8,286047001.9,N
1457612555.6,286047001.2,N
1457612575.4,286046996.8,N
1457612595.3,286046997.8,N
1457612615.1,286046998.7,N
1457612635.8,286046997.5,N
1457612655.7,286046994.6,N
1457612675.5,286046994.4,N
1457612695.3,286046994.3,N
1457612715.2,286046994.6,N
1457612735.9,286046995.3,N
1457612755.7,286047001.1,N
1457612775.6,286047002.8,N
1457612795.4,286047004.4,N
1457612815.2,286047003.2,N
1457612835.1,286047002.4,N
1457612836.0,286047002.4,N
1457612855.8,286047001.1,N
1457612875.6,286046998.5,N
1457612895.4,286046998.2,N
1457612915.3,286046999.3,N
1457612935.1,286046998.3,N
1457612955.8,286047004.0,N
1457612975.7,286047003.6,N
1457612995.5,286047004.3,N
1457613015.3,286046998.7,N
1457613035.2,286047001.1,N
1457613055.9,286047002.8,N
1457613075.7,286046998.5,N
1457613095.6,286047000.4,N
1457613115.4,286046998.3,N
1457613135.2,286047004.4,N
1457613155.1,286047001.6,N
1457613156.0,286047001.6,N
1457613175.8,286046999.4,N
1457613195.6,286046997.9,N
1457613215.5,286046996.1,N
1457613235.3,286046994.1,N
1457613255.1,286046992.8,N
1457613275.9,286046989.8,Y
1457613295.7,286046987.2,P
1457613315.5,286046985.0,N
1457613335.4,286046983.1,N
1457613355.2,286046977.8,Y
1457613375.0,286046991.5,P
1457613375.9,286046991.5,P
1457613395.8,286046989.8,P
1457613415.6,286046986.1,Y
1457613435.4,286046997.7,P
1457613455.3,286046999.3,N
1457613475.1,286046999.4,N
1457613476.0,286046999.4,N
1457613495.8,286046995.0,N
1457613515.7,286046998.4,N
1457613535.5,286046997.4,N
1457613555.3,286046996.0,N
1457613575.1,286046996.0,N
1457613595.9,286046996.9,N
1457613615.7,286046995.0,N
1457613635.5,286046993.6,N
1457613655.4,286046993.4,N
1457613675.2,286046994.8,N
1457613695.0,286046993.6,N
1457613695.9,286046993.6,N
1457613715.8,286046994.8,N
1457613735.6,286046990.8,Y
1457613755.4,286046995.3,P
1457613775.3,286046995.7,P
1457613795.1,286046997.3,P
1457613815.8,286046998.4,N
1457613835.7,286047001.1,N
1457613855.5,286046998.8,N
1457613875.3,286046998.5,N
1457613895.2,286046999.0,N
1457613915.9,286047002.6,N
1457613935.7,286047007.4,Y
1457613955.6,286047008.0,P
1457613975.4,286047010.7,N
1457613995.2,286047007.7,N
1457614015.0,286047011.2,N
1457614016.0,286047011.2,N
1457614035.8,286047012.7,N
1457614055.6,286047015.9,Y
1457614075.5,286047009.8,P
1457614095.3,286047012.8,P
1457614115.1,286047014.1,P
1457614135.9,286047013.6,Y
1457614155.7,286046999.7,P
1457614175.5,286047002.1,N
1457614195.4,286047000.0,N
1457614215.2,286047002.6,N
1457614235.0,286047001.1,N
1457614235.9,286047001.1,N
1457614255.7,286047003.0,N
1457614275.6,286047001.7,N
1457614295.4,286047005.1,N
1457614315.2,286047001.9,N
1457614335.1,286047004.3,N
1457614336.0,286047004.3,N
1457614355.8,286047002.7,N
1457614375.6,286047001.7,N
1457614395.5,286047005.4,N
1457614415.3,286047003.1,N
1457614435.1,286047002.9,N
1457614455.9,286047004.0,N
1457614475.7,286047000.7,N
1457614495.5,286046998.2,N
1457614515.4,286046996.5,N
1457614535.2,286046996.4,N
1457614555.0,286046992.2,N
1457614555.9,286046992.2,N
1457614575.8,286046992.5,N
1457614595.6,286046992.5,N
1457614615.4,286046994.7,N
1457614635.2,286046991.5,N
1457614655.1,286046991.0,N
1457614656.0,286046991.0,N
1457614675.8,286046988.8,N
1457614695.6,286046988.5,N
1457614715.5,286046988.6,N
1457614735.3,286046993.2,N
1457614755.1,286046991.5,N
1457614775.9,286046990.0,N
1457614795.7,286046985.5,N
